sat.trackr.live / text

‹ back to catalog

COSMOS 2456 (730)

NORAD 36111 · 2009-070A

PAYLOAD ACTIVE UNKNOWN

§ Identity

Operator
Country
CIS
Launch date
2009-12-14
Launch site
TYMSC
Launch vehicle
Mass (kg)
RCS (m²)
5.01

Purposes: nav

External: N2YO · Heavens-Above · Gunter

§ Orbital elements

Epoch: 2026-09-06T17:38:08.644992Z

Period
675.73 min
Inclination
65.0634°
Eccentricity
0.0001850
Mean motion
2.13103422 rev/d
Perigee alt
19,125.1 km
Apogee alt
19,134.5 km
Semi-major
25,507.9 km
B*
0.0000e+0
RAAN
68.1929°
Arg perigee
353.7024°
Mean anomaly
183.4854°
Rev number
13,016

§ Raw data

COSMOS 2456 (730)1 36111U 09070A   26249.73482228  .00000037  00000+0  00000+0 0  99952 36111  65.0634  68.1929 0001850 353.7024 183.4854  2.13103422130163

JSON: /api/v1/satellites/36111 · /tle

For live sub-satellite position, see the globe view (requires WebGL).

§ Visibility from observer

Set your observer location to see the next 7 days of passes ≥ 10°. The values pass through the URL so the page stays shareable.

No JS? Fill the form by hand. The geolocation button needs JavaScript.